Weather History for Sidney-Richland, MT

Change the Weather History Date:

Tuesday, May 14, 2013

  Actual Average Record
Temperature  
Mean Temperature 62 °F -  
Max Temperature 73 °F 73 °F 89 °F (1993)
Min Temperature 51 °F 39 °F 24 °F (2004)
Degree Days  
Heating Degree Days 3    
Growing Degree Days 12 (Base 50)    
Moisture  
Dew Point 41 °F    
Average Humidity 48    
Maximum Humidity 88    
Minimum Humidity 27    
Precipitation  
Precipitation 0.00 in - - ()
Sea Level Pressure  
Sea Level Pressure 29.82 in    
Wind  
Wind Speed 17 mph (WNW)    
Max Wind Speed 32 mph    
Max Gust Speed 47 mph    
Visibility 10 miles    
Events Thunderstorm    
Averages and records for this station are not official NWS values.
T = Trace of Precipitation, MM = Missing Value Source: NWS Daily Summary

Daily Weather History Graph

Daily Weather History Graph

Search for Another Location

Airport:

Trip Planner

Search our weather history database for the weather conditions in past years. The results will help you decide how hot, cold, wet, or windy it might be!

Date:

Astronomy

May. 14, 2013 Rise Set
Actual Time 5:19 AM MDT 8:27 PM MDT
Civil Twilight 4:43 AM MDT 9:03 PM MDT
Nautical Twilight 3:55 AM MDT 9:51 PM MDT
Astronomical Twilight 2:57 AM MDT 10:51 PM MDT
Moon 9:02 AM MDT (5/14) No Moon Set
Length of Visible Light 16h 20m
Length of Day
15h 07m
Waxing Crescent, 19% of the Moon is Illuminated
May 14
Waxing Crescent
May 17
First Quarter
May 24
Full
May 31
Last Quarter
Jun 8
New

Hourly Weather History & Observations

Time (MDT) Temp. Dew Point Humidity Pressure Visibility Wind Dir Wind Speed Gust Speed Precip Events Conditions
12:35 AM 64.4 °F 53.6 °F 68% 29.73 in 9.0 mi WNW 21.9 mph 47.2 mph N/A Thunderstorm Scattered Clouds
12:55 AM 60.8 °F 55.4 °F 82% 29.65 in 8.0 mi NNW 25.3 mph 43.7 mph N/A   Mostly Cloudy
1:15 AM 60.8 °F 55.4 °F 82% 29.66 in 10.0 mi NNW 26.5 mph 35.7 mph N/A   Partly Cloudy
1:35 AM 60.8 °F 55.4 °F 82% 29.66 in 10.0 mi NNW 20.7 mph 29.9 mph N/A   Clear
1:55 AM 59.0 °F 55.4 °F 88% 29.67 in 10.0 mi North 13.8 mph 26.5 mph N/A   Clear
2:35 AM 57.2 °F 53.6 °F 88% 29.71 in 10.0 mi NNE 4.6 mph - N/A   Clear
2:55 AM 57.2 °F 53.6 °F 88% 29.70 in 10.0 mi NNE 3.5 mph - N/A   Clear
3:15 AM 57.2 °F 53.6 °F 88% 29.70 in 10.0 mi Calm Calm - N/A   Clear
3:55 AM 55.4 °F 51.8 °F 88% 29.74 in 10.0 mi West 11.5 mph - N/A   Clear
4:35 AM 55.4 °F 51.8 °F 88% 29.76 in 10.0 mi WSW 12.7 mph - N/A   Clear
4:55 AM 57.2 °F 48.2 °F 72% 29.77 in 10.0 mi West 13.8 mph - N/A   Clear
5:15 AM 55.4 °F 44.6 °F 67% 29.77 in 10.0 mi West 9.2 mph - N/A   Clear
5:35 AM 55.4 °F 42.8 °F 63% 29.77 in 10.0 mi West 10.4 mph - N/A   Clear
6:16 AM 55.4 °F 39.2 °F 54% 29.79 in 10.0 mi West 10.4 mph - N/A   Clear
6:35 AM 55.4 °F 37.4 °F 51% 29.79 in 10.0 mi West 9.2 mph - N/A   Clear
6:55 AM 57.2 °F 37.4 °F 48% 29.79 in 10.0 mi West 12.7 mph 17.3 mph N/A   Clear
7:15 AM 57.2 °F 37.4 °F 48% 29.79 in 10.0 mi WSW 16.1 mph 21.9 mph N/A   Clear
7:35 AM 59.0 °F 39.2 °F 48% 29.81 in 10.0 mi West 13.8 mph 21.9 mph N/A   Clear
8:15 AM 60.8 °F 37.4 °F 42% 29.81 in 10.0 mi West 24.2 mph 39.1 mph N/A   Clear
8:35 AM 62.6 °F 37.4 °F 39% 29.80 in 10.0 mi West 27.6 mph 36.8 mph N/A   Clear
8:55 AM 62.6 °F 37.4 °F 39% 29.80 in 10.0 mi West 32.2 mph 42.6 mph N/A   Clear
9:15 AM 62.6 °F 37.4 °F 39% 29.81 in 10.0 mi West 26.5 mph 41.4 mph N/A   Clear
9:55 AM 64.4 °F 39.2 °F 40% 29.81 in 10.0 mi West 29.9 mph 36.8 mph N/A   Clear
10:15 AM 64.4 °F 39.2 °F 40% 29.82 in 10.0 mi WNW 29.9 mph 42.6 mph N/A   Clear
10:35 AM 64.4 °F 39.2 °F 40% 29.83 in 10.0 mi WNW 29.9 mph 40.3 mph N/A   Clear
10:55 AM 66.2 °F 39.2 °F 37% 29.84 in 10.0 mi WNW 26.5 mph 41.4 mph N/A   Clear
11:15 AM 66.2 °F 42.8 °F 43% 29.84 in 10.0 mi WNW 26.5 mph 33.4 mph N/A   Clear
11:35 AM 66.2 °F 42.8 °F 43% 29.86 in 10.0 mi WNW 27.6 mph 34.5 mph N/A   Scattered Clouds
11:55 AM 66.2 °F 41.0 °F 40% 29.86 in 10.0 mi WNW 24.2 mph 31.1 mph N/A   Mostly Cloudy
12:15 PM 68.0 °F 42.8 °F 40% 29.86 in 10.0 mi WNW 23.0 mph 35.7 mph N/A   Mostly Cloudy
12:35 PM 69.8 °F 42.8 °F 38% 29.86 in 10.0 mi NW 25.3 mph 32.2 mph N/A   Scattered Clouds
1:15 PM 68.0 °F 41.0 °F 37% 29.87 in 10.0 mi NW 17.3 mph 32.2 mph N/A   Mostly Cloudy
1:35 PM 69.8 °F 42.8 °F 38% 29.87 in 10.0 mi WNW 17.3 mph 29.9 mph N/A   Mostly Cloudy
1:55 PM 71.6 °F 41.0 °F 33% 29.86 in 10.0 mi NW 17.3 mph 28.8 mph N/A   Mostly Cloudy
2:35 PM 71.6 °F 42.8 °F 35% 29.85 in 10.0 mi WNW 13.8 mph 23.0 mph N/A   Clear
2:55 PM 71.6 °F 41.0 °F 33% 29.85 in 10.0 mi NW 19.6 mph 27.6 mph N/A   Partly Cloudy
3:15 PM 71.6 °F 39.2 °F 31% 29.85 in 10.0 mi WNW 13.8 mph 25.3 mph N/A   Clear
3:55 PM 71.6 °F 39.2 °F 31% 29.84 in 10.0 mi WNW 12.7 mph 19.6 mph N/A   Partly Cloudy
4:15 PM 73.4 °F 39.2 °F 29% 29.84 in 10.0 mi NW 12.7 mph 23.0 mph N/A   Partly Cloudy
4:35 PM 73.4 °F 39.2 °F 29% 29.84 in 10.0 mi WNW 17.3 mph 20.7 mph N/A   Partly Cloudy
4:55 PM 73.4 °F 37.4 °F 27% 29.84 in 10.0 mi NW 16.1 mph 19.6 mph N/A   Partly Cloudy
5:15 PM 73.4 °F 37.4 °F 27% 29.84 in 10.0 mi NW 11.5 mph 18.4 mph N/A   Scattered Clouds
5:35 PM 71.6 °F 37.4 °F 29% 29.84 in 10.0 mi NW 11.5 mph - N/A   Mostly Cloudy
5:55 PM 71.6 °F 37.4 °F 29% 29.84 in 10.0 mi WNW 17.3 mph - N/A   Partly Cloudy
6:35 PM 69.8 °F 35.6 °F 28% 29.85 in 10.0 mi WNW 12.7 mph 16.1 mph N/A   Partly Cloudy
6:55 PM 69.8 °F 37.4 °F 31% 29.85 in 10.0 mi WNW 9.2 mph - N/A   Clear
7:15 PM 69.8 °F 37.4 °F 31% 29.85 in 9.0 mi West 9.2 mph - N/A   Partly Cloudy
7:35 PM 68.0 °F 37.4 °F 33% 29.84 in 9.0 mi West 5.8 mph - N/A   Mostly Cloudy
7:55 PM 66.2 °F 37.4 °F 35% 29.85 in 10.0 mi West 6.9 mph - N/A   Overcast
8:15 PM 62.6 °F 37.4 °F 39% 29.85 in 10.0 mi West 6.9 mph - N/A   Mostly Cloudy
8:35 PM 59.0 °F 37.4 °F 45% 29.86 in 10.0 mi West 6.9 mph - N/A   Partly Cloudy
8:55 PM 57.2 °F 37.4 °F 48% 29.87 in 10.0 mi West 8.1 mph - N/A   Clear
9:15 PM 55.4 °F 35.6 °F 47% 29.87 in 10.0 mi WNW 9.2 mph - N/A   Clear
9:35 PM 55.4 °F 35.6 °F 47% 29.88 in 10.0 mi WNW 10.4 mph - N/A   Clear
9:56 PM 55.4 °F 35.6 °F 47% 29.89 in 10.0 mi West 13.8 mph - N/A   Clear
10:15 PM 55.4 °F 35.6 °F 47% 29.89 in 10.0 mi West 11.5 mph - N/A   Clear
10:55 PM 51.8 °F 35.6 °F 54% 29.89 in 10.0 mi West 9.2 mph - N/A   Clear
11:15 PM 53.6 °F 35.6 °F 51% 29.90 in 10.0 mi SSE 4.6 mph - N/A   Clear
11:55 PM 53.6 °F 35.6 °F 51% 29.90 in 10.0 mi NNW 4.6 mph - N/A   Clear